QPF
0.00 0.00 0.00 0.00 0.02 0.03 0.05 0.03 0.01 0.00 0.00 0.00 0.00 0.00 0.00 0.00 0.02 0.02 0.00 0.00 0.00 0.00 0.00 0.00 0.00 0.00 0.00 0.00 0.00 0.00 0.00 0.00 0.00 0.00 0.00 0.00 0.00 0.00 0.00 0.00 0.00 0.00 0.00 0.00 0.00 0.00 0.00 0.00 0.00
0.00 0.00 0.00 0.00 0.01 0.06 0.09 0.03 0.01 0.01 0.00 0.00 0.00 0.00 0.00 0.00 0.00 0.00 0.00 0.00 0.00 0.00 0.00 0.00 0.00 0.00 0.00 0.00 0.00 0.00 0.00 0.00 0.00 0.00 0.00 0.00 0.00 0.00 0.00 0.00 0.00 0.00 0.00 0.00 0.00 0.00 0.00 0.00 0.00
0.00 0.00 0.00 0.00 0.01 0.06 0.10 0.03 0.01 0.00 0.02 0.01 0.00 0.00 0.00 0.00 0.00 0.00 0.00 0.00 0.00 0.00 0.00 0.00 0.00 0.00 0.00 0.00 0.00 0.00 0.00 0.00 0.00 0.00 0.00 0.00 0.00 0.00 0.00 0.00 0.00 0.00 0.00 0.00 0.00 0.00 0.00 0.00 0.00
0.00 0.00 0.00 0.00 0.00 0.01 0.01 0.02 0.03 0.02 0.02 0.02 0.01 0.00 0.00 0.00 0.00 0.00 0.00 0.00 0.00 0.00 0.00 0.00 0.00 0.00 0.00 0.00 0.00 0.00 0.00 0.00 0.00 0.00 0.00 0.00 0.00 0.00 0.00 0.00 0.00 0.00 0.00 0.00 0.00 0.00 0.00 0.00 0.00
0.00 0.00 0.00 0.00 0.00 0.00 0.01 0.03 0.07 0.08 0.03 0.02 0.01 0.00 0.00 0.00 0.00 0.00 0.00 0.00 0.00 0.00 0.00 0.00 0.00 0.00 0.00 0.00 0.01 0.01 0.01 0.01 0.00 0.00 0.00 0.00 0.00 0.00 0.00 0.00 0.00 0.00 0.00 0.00 0.00 0.00 0.01 0.00 0.00
0.00 0.00 0.00 0.00 0.00 0.00 0.01 0.05 0.11 0.09 0.04 0.01 0.00 0.00 0.00 0.00 0.00 0.00 0.00 0.00 0.00 0.00 0.00 0.00 0.00 0.00 0.00 0.00 0.00 0.00 0.01 0.01 0.00 0.00 0.00 0.00 0.00 0.00 0.00 0.00 0.00 0.00 0.00 0.00 0.00 0.00 0.01 0.01 0.00
0.00 0.00 0.00 0.00 0.00 0.00 0.01 0.04 0.07 0.07 0.03 0.01 0.02 0.01 0.00 0.00 0.00 0.00 0.00 0.00 0.00 0.00 0.00 0.00 0.00 0.00 0.00 0.00 0.01 0.01 0.01 0.01 0.01 0.01 0.00 0.00 0.00 0.00 0.00 0.00 0.00 0.00 0.00 0.00 0.00 0.00 0.00 0.00 0.00
0.00 0.00 0.00 0.00 0.00 0.00 0.00 0.00 0.01 0.02 0.02 0.01 0.01 0.02 0.00 0.00 0.00 0.00 0.00 0.00 0.00 0.00 0.00 0.00 0.00 0.00 0.00 0.00 0.01 0.01 0.01 0.01 0.01 0.01 0.00 0.00 0.00 0.00 0.00 0.00 0.00 0.00 0.00 0.01 0.00 0.00 0.00 0.00 0.00
0.00 0.00 0.00 0.00 0.00 0.00 0.00 0.00 0.00 0.01 0.01 0.00 0.00 0.00 0.00 0.00 0.00 0.00 0.00 0.00 0.00 0.00 0.00 0.00 0.00 0.00 0.00 0.00 0.00 0.00 0.00 0.00 0.00 0.00 0.00 0.00 0.00 0.00 0.00 0.00 0.01 0.04 0.07 0.08 0.06 0.03 0.02 0.01 0.01
0.00 0.00 0.00 0.00 0.00 0.00 0.00 0.00 0.00 0.01 0.00 0.00 0.01 0.01 0.00 0.00 0.00 0.00 0.00 0.00 0.00 0.00 0.00 0.00 0.00 0.00 0.00 0.00 0.00 0.00 0.00 0.00 0.00 0.00 0.00 0.00 0.00 0.00 0.00 0.01 0.06 0.15 0.19 0.16 0.13 0.14 0.13 0.09 0.05
0.00 0.00 0.00 0.00 0.00 0.00 0.00 0.00 0.00 0.00 0.00 0.00 0.00 0.00 0.00 0.00 0.00 0.00 0.00 0.00 0.00 0.00 0.00 0.00 0.00 0.00 0.00 0.00 0.00 0.00 0.00 0.00 0.00 0.00 0.01 0.02 0.03 0.03 0.03 0.03 0.15 0.24 0.25 0.17 0.20 0.27 0.21 0.17 0.18
0.00 0.00 0.00 0.00 0.00 0.00 0.00 0.00 0.00 0.00 0.00 0.00 0.01 0.01 0.00 0.00 0.00 0.00 0.00 0.00 0.00 0.00 0.00 0.00 0.00 0.00 0.00 0.00 0.00 0.00 0.00 0.01 0.01 0.01 0.06 0.10 0.09 0.12 0.12 0.13 0.17 0.20 0.17 0.13 0.17 0.15 0.15 0.22 0.29
0.00 0.00 0.00 0.00 0.00 0.00 0.00 0.00 0.00 0.00 0.00 0.00 0.01 0.02 0.01 0.00 0.00 0.00 0.00 0.01 0.02 0.03 0.02 0.02 0.01 0.01 0.00 0.00 0.00 0.00 0.00 0.01 0.02 0.03 0.05 0.05 0.12 0.18 0.15 0.14 0.16 0.21 0.20 0.22 0.25 0.21 0.27 0.33 0.37
0.00 0.00 0.00 0.00 0.00 0.00 0.00 0.00 0.00 0.00 0.00 0.00 0.00 0.01 0.01 0.01 0.01 0.02 0.04 0.08 0.14 0.18 0.14 0.13 0.10 0.06 0.04 0.02 0.02 0.02 0.02 0.03 0.04 0.04 0.05 0.06 0.10 0.16 0.15 0.17 0.24 0.28 0.20 0.13 0.12 0.14 0.20 0.23 0.21
0.00 0.00 0.00 0.00 0.00 0.00 0.00 0.00 0.00 0.00 0.00 0.00 0.01 0.03 0.04 0.05 0.07 0.16 0.30 0.51 0.78 0.87 0.62 0.41 0.32 0.25 0.19 0.19 0.18 0.11 0.09 0.10 0.09 0.06 0.07 0.12 0.14 0.16 0.17 0.15 0.15 0.18 0.11 0.05 0.05 0.04 0.05 0.09 0.10
0.00 0.00 0.00 0.00 0.00 0.00 0.00 0.00 0.00 0.00 0.00 0.01 0.04 0.08 0.10 0.15 0.22 0.41 0.75 1.23 1.73 1.93 1.54 1.06 0.89 0.81 0.58 0.43 0.25 0.12 0.10 0.10 0.06 0.03 0.05 0.10 0.08 0.06 0.04 0.03 0.03 0.02 0.01 0.01 0.01 0.02 0.01 0.02 0.03
0.00 0.00 0.00 0.00 0.00 0.00 0.00 0.00 0.00 0.00 0.00 0.01 0.04 0.07 0.09 0.14 0.21 0.36 0.79 1.38 2.10 2.63 2.50 1.98 1.80 1.62 1.02 0.45 0.21 0.13 0.09 0.05 0.02 0.02 0.03 0.04 0.03 0.02 0.01 0.00 0.00 0.00 0.00 0.00 0.00 0.00 0.01 0.01 0.01
0.00 0.00 0.00 0.00 0.00 0.00 0.00 0.00 0.00 0.00 0.00 0.00 0.01 0.03 0.08 0.15 0.20 0.28 0.51 0.80 1.50 1.98 1.93 1.82 1.80 1.36 0.75 0.35 0.19 0.09 0.04 0.02 0.01 0.00 0.01 0.01 0.00 0.00 0.00 0.00 0.00 0.00 0.00 0.00 0.00 0.00 0.01 0.01 0.01
0.00 0.00 0.00 0.00 0.00 0.00 0.00 0.00 0.00 0.00 0.00 0.00 0.00 0.02 0.05 0.14 0.22 0.29 0.36 0.39 0.64 0.81 0.83 0.94 0.86 0.69 0.38 0.23 0.12 0.06 0.02 0.01 0.00 0.00 0.00 0.00 0.00 0.00 0.00 0.00 0.00 0.00 0.00 0.00 0.00 0.00 0.00 0.00 0.00
0.00 0.00 0.00 0.00 0.00 0.00 0.00 0.00 0.00 0.00 0.00 0.00 0.00 0.03 0.07 0.13 0.19 0.18 0.14 0.26 0.30 0.38 0.43 0.45 0.43 0.32 0.16 0.09 0.06 0.04 0.02 0.01 0.00 0.00 0.00 0.00 0.00 0.00 0.00 0.00 0.00 0.00 0.00 0.00 0.00 0.00 0.00 0.00 0.00
0.00 0.00 0.00 0.00 0.00 0.00 0.00 0.00 0.00 0.00 0.01 0.02 0.03 0.04 0.07 0.09 0.06 0.04 0.03 0.08 0.25 0.44 0.38 0.22 0.19 0.13 0.07 0.04 0.03 0.01 0.01 0.01 0.01 0.00 0.00 0.00 0.00 0.00 0.00 0.00 0.00 0.00 0.00 0.00 0.00 0.00 0.00 0.00 0.00
0.00 0.00 0.00 0.00 0.00 0.00 0.00 0.00 0.02 0.03 0.04 0.05 0.06 0.05 0.03 0.01 0.00 0.01 0.02 0.04 0.12 0.24 0.24 0.17 0.14 0.11 0.05 0.03 0.02 0.01 0.00 0.00 0.00 0.00 0.00 0.00 0.00 0.00 0.00 0.00 0.00 0.00 0.00 0.00 0.00 0.00 0.00 0.00 0.00
0.00 0.00 0.00 0.00 0.00 0.00 0.00 0.01 0.06 0.07 0.07 0.06 0.04 0.03 0.01 0.00 0.00 0.00 0.00 0.00 0.01 0.04 0.09 0.12 0.16 0.20 0.11 0.06 0.04 0.04 0.02 0.01 0.01 0.01 0.01 0.01 0.00 0.00 0.00 0.00 0.00 0.00 0.00 0.00 0.00 0.00 0.00 0.00 0.00
0.00 0.00 0.00 0.00 0.00 0.00 0.01 0.01 0.05 0.06 0.04 0.02 0.01 0.01 0.01 0.01 0.01 0.00 0.00 0.00 0.01 0.04 0.05 0.07 0.13 0.18 0.15 0.11 0.09 0.10 0.11 0.09 0.07 0.06 0.06 0.05 0.03 0.02 0.01 0.00 0.00 0.00 0.00 0.00 0.00 0.00 0.00 0.00 0.00
0.00 0.00 0.00 0.00 0.01 0.00 0.00 0.02 0.07 0.08 0.04 0.01 0.00 0.00 0.00 0.00 0.00 0.01 0.01 0.01 0.01 0.03 0.03 0.03 0.05 0.08 0.10 0.09 0.09 0.14 0.22 0.27 0.26 0.21 0.15 0.10 0.07 0.04 0.02 0.01 0.01 0.00 0.00 0.00 0.00 0.00 0.00 0.00 0.00
0.00 0.00 0.00 0.00 0.00 0.00 0.01 0.03 0.06 0.05 0.02 0.00 0.00 0.00 0.00 0.00 0.00 0.00 0.01 0.01 0.01 0.01 0.01 0.01 0.01 0.01 0.02 0.03 0.05 0.07 0.11 0.18 0.26 0.29 0.26 0.23 0.22 0.14 0.06 0.02 0.01 0.01 0.00 0.00 0.00 0.00 0.00 0.00 0.00
0.00 0.00 0.00 0.00 0.00 0.00 0.00 0.01 0.02 0.01 0.00 0.00 0.00 0.00 0.00 0.00 0.00 0.00 0.00 0.00 0.00 0.00 0.00 0.00 0.00 0.00 0.00 0.00 0.01 0.01 0.02 0.03 0.06 0.10 0.14 0.20 0.28 0.24 0.15 0.08 0.05 0.02 0.01 0.00 0.00 0.00 0.00 0.00 0.00
0.01 0.00 0.00 0.00 0.00 0.00 0.00 0.02 0.06 0.04 0.03 0.01 0.01 0.00 0.00 0.00 0.00 0.00 0.00 0.00 0.00 0.00 0.00 0.00 0.00 0.00 0.00 0.00 0.00 0.00 0.01 0.01 0.02 0.03 0.04 0.06 0.10 0.13 0.13 0.10 0.08 0.05 0.03 0.02 0.01 0.00 0.00 0.00 0.00
0.00 0.00 0.00 0.00 0.00 0.00 0.00 0.02 0.05 0.05 0.03 0.01 0.01 0.00 0.00 0.00 0.00 0.00 0.00 0.00 0.00 0.00 0.00 0.00 0.00 0.00 0.00 0.00 0.00 0.00 0.00 0.00 0.00 0.01 0.01 0.01 0.01 0.02 0.03 0.04 0.05 0.04 0.03 0.02 0.01 0.01 0.00 0.00 0.00
0.00 0.00 0.00 0.01 0.01 0.01 0.01 0.01 0.01 0.01 0.01 0.00 0.00 0.00 0.00 0.00 0.00 0.00 0.00 0.00 0.00 0.00 0.00 0.00 0.00 0.00 0.00 0.00 0.00 0.00 0.00 0.00 0.00 0.00 0.00 0.00 0.00 0.00 0.00 0.00 0.01 0.01 0.01 0.02 0.02 0.02 0.01 0.01 0.00
MSLP
1010.33 1011.39 1012.49 1013.44 1014.06 1014.21 1013.86 1013.05 1011.95 1010.75 1009.68 1008.92 1008.57 1008.62 1008.99 1009.52 1010.06 1010.45 1010.60 1010.53 1010.29 1009.99 1009.74 1009.64 1009.74 1010.02 1010.41 1010.83 1011.21 1011.52 1011.72 1011.87 1012.01 1012.19 1012.46 1012.80 1013.20 1013.60 1013.95 1014.20 1014.33 1014.37 1014.34 1014.29 1014.27 1014.30 1014.38 1014.50 1014.63
1010.62 1011.82 1012.97 1013.89 1014.39 1014.38 1013.84 1012.86 1011.62 1010.33 1009.20 1008.40 1008.01 1008.03 1008.34 1008.82 1009.30 1009.65 1009.81 1009.78 1009.62 1009.44 1009.31 1009.33 1009.51 1009.83 1010.23 1010.63 1010.99 1011.25 1011.45 1011.60 1011.77 1011.99 1012.29 1012.67 1013.09 1013.49 1013.84 1014.08 1014.23 1014.28 1014.29 1014.28 1014.29 1014.34 1014.43 1014.53 1014.63
1010.91 1012.19 1013.37 1014.23 1014.63 1014.50 1013.84 1012.77 1011.47 1010.16 1009.03 1008.22 1007.81 1007.77 1008.00 1008.37 1008.74 1009.02 1009.14 1009.12 1009.03 1008.94 1008.93 1009.05 1009.31 1009.67 1010.07 1010.46 1010.77 1011.01 1011.19 1011.34 1011.52 1011.76 1012.07 1012.45 1012.86 1013.25 1013.57 1013.81 1013.96 1014.05 1014.10 1014.16 1014.24 1014.34 1014.45 1014.56 1014.64
1011.19 1012.51 1013.65 1014.45 1014.76 1014.54 1013.83 1012.75 1011.47 1010.20 1009.12 1008.34 1007.92 1007.81 1007.93 1008.16 1008.40 1008.55 1008.61 1008.59 1008.54 1008.53 1008.62 1008.83 1009.16 1009.55 1009.95 1010.31 1010.59 1010.80 1010.96 1011.11 1011.29 1011.54 1011.85 1012.21 1012.58 1012.93 1013.22 1013.44 1013.60 1013.72 1013.84 1013.97 1014.13 1014.30 1014.46 1014.58 1014.66
1011.46 1012.73 1013.80 1014.50 1014.72 1014.45 1013.73 1012.70 1011.50 1010.34 1009.35 1008.62 1008.19 1008.01 1008.01 1008.10 1008.18 1008.22 1008.20 1008.15 1008.14 1008.20 1008.38 1008.67 1009.04 1009.46 1009.85 1010.19 1010.44 1010.63 1010.77 1010.92 1011.11 1011.36 1011.66 1012.00 1012.33 1012.62 1012.87 1013.06 1013.22 1013.38 1013.55 1013.76 1013.99 1014.23 1014.45 1014.60 1014.68
1011.68 1012.84 1013.76 1014.33 1014.45 1014.13 1013.43 1012.47 1011.40 1010.37 1009.50 1008.85 1008.43 1008.21 1008.10 1008.05 1008.00 1007.94 1007.86 1007.81 1007.83 1007.96 1008.22 1008.57 1008.99 1009.41 1009.79 1010.10 1010.33 1010.49 1010.64 1010.80 1011.00 1011.25 1011.55 1011.86 1012.15 1012.39 1012.58 1012.74 1012.88 1013.05 1013.26 1013.53 1013.83 1014.13 1014.40 1014.58 1014.67
1011.81 1012.79 1013.52 1013.89 1013.88 1013.50 1012.81 1011.94 1011.00 1010.13 1009.39 1008.83 1008.45 1008.20 1008.03 1007.90 1007.77 1007.65 1007.56 1007.54 1007.63 1007.83 1008.16 1008.57 1009.01 1009.42 1009.78 1010.05 1010.25 1010.40 1010.55 1010.72 1010.95 1011.22 1011.52 1011.81 1012.06 1012.25 1012.39 1012.50 1012.61 1012.77 1012.99 1013.29 1013.63 1013.97 1014.27 1014.48 1014.58
1011.83 1012.57 1013.04 1013.20 1013.01 1012.54 1011.85 1011.04 1010.23 1009.50 1008.90 1008.46 1008.14 1007.92 1007.75 1007.60 1007.46 1007.36 1007.31 1007.37 1007.54 1007.84 1008.23 1008.68 1009.12 1009.52 1009.83 1010.05 1010.21 1010.34 1010.49 1010.68 1010.94 1011.23 1011.54 1011.82 1012.04 1012.19 1012.27 1012.33 1012.39 1012.52 1012.73 1013.02 1013.36 1013.72 1014.04 1014.26 1014.39
1011.73 1012.20 1012.38 1012.28 1011.90 1011.30 1010.58 1009.82 1009.11 1008.51 1008.06 1007.74 1007.53 1007.38 1007.27 1007.18 1007.12 1007.10 1007.17 1007.34 1007.63 1008.02 1008.47 1008.94 1009.37 1009.71 1009.95 1010.11 1010.22 1010.32 1010.46 1010.66 1010.94 1011.26 1011.58 1011.86 1012.06 1012.17 1012.20 1012.20 1012.21 1012.28 1012.44 1012.70 1013.02 1013.37 1013.69 1013.93 1014.07
1011.53 1011.71 1011.61 1011.24 1010.66 1009.93 1009.16 1008.43 1007.81 1007.34 1007.02 1006.84 1006.76 1006.73 1006.75 1006.78 1006.85 1006.98 1007.19 1007.51 1007.91 1008.39 1008.89 1009.35 1009.73 1010.00 1010.16 1010.23 1010.27 1010.32 1010.43 1010.64 1010.93 1011.26 1011.59 1011.87 1012.05 1012.13 1012.12 1012.06 1012.01 1012.02 1012.12 1012.33 1012.61 1012.93 1013.25 1013.50 1013.66
1011.29 1011.21 1010.84 1010.23 1009.46 1008.62 1007.81 1007.10 1006.56 1006.21 1006.03 1006.00 1006.06 1006.19 1006.35 1006.55 1006.79 1007.08 1007.45 1007.90 1008.41 1008.95 1009.46 1009.89 1010.20 1010.37 1010.42 1010.39 1010.34 1010.33 1010.40 1010.58 1010.86 1011.20 1011.53 1011.80 1011.97 1012.03 1011.98 1011.88 1011.78 1011.73 1011.78 1011.93 1012.17 1012.46 1012.76 1013.02 1013.21
1011.07 1010.77 1010.18 1009.39 1008.48 1007.57 1006.75 1006.09 1005.64 1005.41 1005.37 1005.47 1005.69 1005.96 1006.28 1006.64 1007.03 1007.47 1007.97 1008.52 1009.09 1009.64 1010.13 1010.49 1010.71 1010.77 1010.70 1010.57 1010.42 1010.34 1010.35 1010.49 1010.74 1011.05 1011.37 1011.63 1011.79 1011.84 1011.78 1011.65 1011.52 1011.43 1011.44 1011.54 1011.74 1012.00 1012.29 1012.56 1012.77
1010.93 1010.48 1009.74 1008.84 1007.87 1006.95 1006.18 1005.60 1005.26 1005.16 1005.24 1005.48 1005.82 1006.22 1006.66 1007.12 1007.62 1008.15 1008.71 1009.29 1009.86 1010.38 1010.79 1011.06 1011.17 1011.11 1010.94 1010.71 1010.48 1010.32 1010.28 1010.36 1010.56 1010.84 1011.12 1011.36 1011.52 1011.56 1011.51 1011.39 1011.25 1011.15 1011.13 1011.21 1011.38 1011.62 1011.90 1012.17 1012.41
1010.93 1010.37 1009.57 1008.64 1007.71 1006.86 1006.20 1005.76 1005.55 1005.58 1005.78 1006.12 1006.54 1007.00 1007.49 1008.00 1008.51 1009.05 1009.59 1010.12 1010.61 1011.03 1011.34 1011.49 1011.49 1011.34 1011.09 1010.78 1010.50 1010.28 1010.17 1010.20 1010.34 1010.56 1010.81 1011.02 1011.16 1011.22 1011.19 1011.10 1010.99 1010.92 1010.91 1010.98 1011.14 1011.37 1011.64 1011.92 1012.17
1011.03 1010.43 1009.64 1008.78 1007.96 1007.27 1006.78 1006.51 1006.47 1006.62 1006.92 1007.32 1007.76 1008.23 1008.69 1009.14 1009.59 1010.03 1010.47 1010.87 1011.23 1011.51 1011.68 1011.73 1011.63 1011.41 1011.11 1010.77 1010.46 1010.20 1010.06 1010.03 1010.11 1010.26 1010.46 1010.64 1010.77 1010.84 1010.85 1010.82 1010.77 1010.75 1010.77 1010.86 1011.03 1011.25 1011.52 1011.79 1012.03
1011.19 1010.60 1009.89 1009.17 1008.54 1008.07 1007.80 1007.74 1007.86 1008.12 1008.48 1008.89 1009.30 1009.69 1010.06 1010.39 1010.69 1010.97 1011.23 1011.46 1011.64 1011.76 1011.80 1011.74 1011.58 1011.33 1011.02 1010.69 1010.38 1010.12 1009.94 1009.87 1009.88 1009.97 1010.10 1010.24 1010.37 1010.46 1010.52 1010.55 1010.58 1010.63 1010.71 1010.84 1011.02 1011.25 1011.50 1011.76 1011.99
1011.34 1010.80 1010.22 1009.70 1009.31 1009.10 1009.08 1009.22 1009.50 1009.85 1010.23 1010.60 1010.92 1011.19 1011.39 1011.55 1011.66 1011.74 1011.80 1011.83 1011.83 1011.80 1011.71 1011.58 1011.38 1011.13 1010.86 1010.57 1010.29 1010.05 1009.86 1009.75 1009.70 1009.71 1009.77 1009.87 1009.97 1010.08 1010.19 1010.30 1010.41 1010.53 1010.68 1010.86 1011.07 1011.31 1011.55 1011.79 1012.01
1011.42 1010.96 1010.55 1010.27 1010.15 1010.22 1010.44 1010.77 1011.17 1011.56 1011.92 1012.20 1012.39 1012.49 1012.51 1012.47 1012.39 1012.27 1012.14 1012.00 1011.84 1011.68 1011.51 1011.32 1011.12 1010.91 1010.69 1010.46 1010.23 1010.02 1009.83 1009.68 1009.57 1009.50 1009.49 1009.53 1009.60 1009.72 1009.86 1010.04 1010.22 1010.43 1010.65 1010.88 1011.12 1011.37 1011.61 1011.84 1012.03
1011.37 1011.05 1010.84 1010.82 1010.98 1011.30 1011.74 1012.22 1012.69 1013.08 1013.35 1013.51 1013.54 1013.46 1013.31 1013.09 1012.84 1012.57 1012.29 1012.02 1011.76 1011.52 1011.29 1011.09 1010.91 1010.75 1010.58 1010.42 1010.24 1010.06 1009.87 1009.68 1009.50 1009.36 1009.26 1009.23 1009.26 1009.37 1009.54 1009.75 1010.00 1010.28 1010.56 1010.84 1011.11 1011.37 1011.62 1011.84 1012.02
1011.23 1011.06 1011.09 1011.33 1011.75 1012.31 1012.91 1013.49 1013.96 1014.29 1014.44 1014.44 1014.30 1014.05 1013.74 1013.40 1013.04 1012.67 1012.32 1011.99 1011.68 1011.41 1011.17 1010.98 1010.83 1010.70 1010.60 1010.48 1010.35 1010.18 1009.98 1009.74 1009.50 1009.28 1009.10 1008.99 1008.97 1009.04 1009.21 1009.45 1009.74 1010.06 1010.38 1010.70 1011.01 1011.29 1011.55 1011.77 1011.96
1011.03 1011.06 1011.33 1011.83 1012.49 1013.22 1013.94 1014.54 1014.96 1015.17 1015.17 1014.99 1014.68 1014.29 1013.87 1013.45 1013.05 1012.67 1012.32 1011.99 1011.70 1011.43 1011.21 1011.04 1010.91 1010.82 1010.74 1010.66 1010.55 1010.38 1010.16 1009.88 1009.57 1009.27 1009.01 1008.82 1008.74 1008.77 1008.90 1009.14 1009.44 1009.78 1010.13 1010.47 1010.80 1011.10 1011.38 1011.62 1011.83
1010.85 1011.10 1011.62 1012.35 1013.21 1014.08 1014.85 1015.42 1015.74 1015.79 1015.60 1015.25 1014.78 1014.28 1013.79 1013.35 1012.97 1012.64 1012.34 1012.08 1011.83 1011.61 1011.42 1011.26 1011.15 1011.07 1011.00 1010.92 1010.80 1010.63 1010.38 1010.07 1009.71 1009.34 1009.01 1008.75 1008.60 1008.57 1008.66 1008.86 1009.14 1009.47 1009.82 1010.17 1010.51 1010.82 1011.12 1011.39 1011.63
1010.78 1011.26 1012.01 1012.95 1013.96 1014.91 1015.67 1016.16 1016.35 1016.22 1015.86 1015.33 1014.73 1014.15 1013.63 1013.21 1012.88 1012.63 1012.43 1012.25 1012.07 1011.90 1011.73 1011.58 1011.47 1011.37 1011.29 1011.20 1011.07 1010.88 1010.62 1010.29 1009.90 1009.49 1009.11 1008.79 1008.57 1008.48 1008.51 1008.65 1008.88 1009.18 1009.50 1009.83 1010.16 1010.48 1010.79 1011.08 1011.36
1010.88 1011.56 1012.51 1013.61 1014.72 1015.70 1016.42 1016.81 1016.85 1016.55 1016.02 1015.35 1014.65 1014.01 1013.48 1013.10 1012.85 1012.69 1012.58 1012.48 1012.36 1012.23 1012.07 1011.92 1011.77 1011.65 1011.54 1011.43 1011.29 1011.10 1010.84 1010.50 1010.11 1009.69 1009.29 1008.94 1008.67 1008.52 1008.48 1008.55 1008.71 1008.94 1009.21 1009.50 1009.80 1010.11 1010.41 1010.72 1011.01
1011.14 1011.99 1013.09 1014.30 1015.46 1016.43 1017.09 1017.37 1017.27 1016.83 1016.16 1015.38 1014.61 1013.94 1013.42 1013.08 1012.89 1012.80 1012.76 1012.71 1012.63 1012.51 1012.34 1012.16 1011.99 1011.83 1011.69 1011.55 1011.41 1011.23 1010.99 1010.69 1010.32 1009.93 1009.53 1009.17 1008.87 1008.67 1008.57 1008.57 1008.65 1008.79 1008.99 1009.21 1009.46 1009.73 1010.01 1010.30 1010.59
1011.57 1012.53 1013.71 1014.96 1016.12 1017.05 1017.63 1017.82 1017.60 1017.06 1016.31 1015.46 1014.66 1013.98 1013.48 1013.16 1013.01 1012.95 1012.93 1012.90 1012.82 1012.68 1012.48 1012.26 1012.04 1011.84 1011.67 1011.53 1011.39 1011.24 1011.04 1010.79 1010.49 1010.14 1009.78 1009.44 1009.14 1008.91 1008.75 1008.68 1008.67 1008.73 1008.84 1008.98 1009.15 1009.36 1009.59 1009.84 1010.10
1012.11 1013.11 1014.30 1015.53 1016.65 1017.51 1018.01 1018.12 1017.84 1017.25 1016.47 1015.62 1014.81 1014.15 1013.66 1013.35 1013.19 1013.13 1013.09 1013.02 1012.90 1012.70 1012.46 1012.18 1011.91 1011.68 1011.49 1011.34 1011.22 1011.10 1010.96 1010.78 1010.55 1010.27 1009.97 1009.67 1009.39 1009.15 1008.96 1008.83 1008.76 1008.73 1008.75 1008.80 1008.89 1009.01 1009.17 1009.35 1009.56
1012.71 1013.69 1014.82 1015.97 1017.00 1017.77 1018.20 1018.26 1017.96 1017.38 1016.62 1015.81 1015.05 1014.41 1013.93 1013.61 1013.42 1013.30 1013.20 1013.06 1012.86 1012.59 1012.28 1011.95 1011.63 1011.36 1011.15 1011.00 1010.89 1010.81 1010.72 1010.60 1010.45 1010.25 1010.02 1009.78 1009.54 1009.32 1009.12 1008.96 1008.84 1008.74 1008.68 1008.65 1008.65 1008.68 1008.75 1008.86 1009.00
1013.35 1014.24 1015.25 1016.27 1017.17 1017.84 1018.21 1018.24 1017.97 1017.44 1016.76 1016.03 1015.33 1014.73 1014.26 1013.91 1013.66 1013.46 1013.25 1013.01 1012.72 1012.37 1011.98 1011.59 1011.23 1010.93 1010.70 1010.54 1010.43 1010.37 1010.31 1010.24 1010.15 1010.02 1009.87 1009.69 1009.51 1009.33 1009.16 1008.99 1008.85 1008.71 1008.59 1008.49 1008.42 1008.37 1008.35 1008.37 1008.43
1013.99 1014.76 1015.62 1016.48 1017.23 1017.79 1018.09 1018.12 1017.89 1017.44 1016.87 1016.24 1015.62 1015.06 1014.59 1014.20 1013.87 1013.57 1013.25 1012.90 1012.50 1012.07 1011.61 1011.17 1010.77 1010.44 1010.18 1009.99 1009.87 1009.80 1009.75 1009.70 1009.64 1009.57 1009.48 1009.37 1009.26 1009.13 1009.01 1008.88 1008.74 1008.60 1008.45 1008.30 1008.17 1008.05 1007.96 1007.90 1007.88
Thickness
5843 5841 5838 5828 5810 5797 5797 5817 5833 5837 5848 5860 5867 5860 5846 5838 5831 5822 5846 5851 5846 5839 5834 5830 5827 5824 5822 5819 5817 5814 5811 5808 5804 5801 5799 5797 5794 5792 5790 5788 5786 5784 5782 5779 5776 5774 5771 5769 5768
5845 5842 5831 5816 5800 5789 5799 5823 5824 5829 5844 5861 5865 5858 5847 5842 5849 5846 5847 5848 5847 5842 5836 5832 5829 5826 5823 5820 5818 5814 5811 5808 5805 5802 5799 5797 5794 5791 5789 5786 5784 5783 5781 5778 5776 5773 5770 5767 5766
5847 5842 5820 5807 5798 5793 5803 5822 5828 5838 5851 5858 5854 5854 5848 5844 5850 5848 5851 5848 5842 5838 5834 5831 5828 5825 5823 5820 5818 5814 5811 5807 5804 5802 5799 5796 5792 5789 5788 5785 5784 5783 5781 5779 5776 5773 5770 5766 5765
5843 5828 5816 5799 5795 5809 5819 5830 5842 5840 5845 5854 5850 5842 5850 5863 5861 5856 5852 5847 5840 5836 5833 5830 5827 5824 5821 5817 5814 5812 5809 5805 5802 5800 5797 5795 5791 5788 5786 5784 5782 5781 5780 5777 5774 5772 5769 5766 5765
5837 5817 5800 5790 5801 5822 5831 5837 5843 5838 5837 5844 5846 5837 5844 5865 5869 5859 5851 5844 5839 5834 5832 5830 5826 5822 5818 5814 5811 5808 5807 5804 5801 5798 5796 5793 5790 5787 5784 5782 5779 5777 5776 5774 5772 5770 5768 5765 5763
5823 5810 5790 5785 5806 5822 5828 5839 5842 5838 5837 5843 5845 5839 5845 5864 5863 5856 5852 5845 5841 5835 5830 5827 5824 5821 5818 5814 5810 5808 5805 5802 5800 5797 5794 5791 5788 5784 5781 5779 5777 5774 5772 5770 5769 5768 5767 5764 5762
5816 5805 5794 5800 5805 5815 5829 5839 5839 5837 5834 5840 5848 5834 5841 5854 5861 5858 5852 5846 5840 5833 5828 5827 5825 5823 5821 5817 5812 5808 5804 5799 5795 5792 5789 5786 5782 5779 5777 5776 5775 5773 5771 5769 5766 5765 5764 5763 5760
5826 5808 5800 5799 5805 5815 5834 5835 5840 5839 5836 5850 5849 5832 5835 5853 5861 5858 5852 5844 5838 5834 5829 5827 5826 5823 5819 5814 5808 5803 5797 5792 5788 5785 5783 5780 5777 5774 5772 5771 5770 5770 5769 5767 5764 5762 5761 5759 5758
5833 5799 5789 5799 5809 5820 5830 5829 5839 5847 5843 5846 5851 5850 5862 5868 5864 5855 5845 5837 5833 5833 5831 5826 5821 5817 5812 5807 5801 5796 5792 5787 5783 5780 5779 5776 5772 5770 5768 5767 5765 5765 5766 5765 5763 5760 5758 5755 5753
5814 5789 5802 5819 5827 5830 5835 5836 5839 5834 5830 5835 5844 5856 5864 5863 5859 5851 5844 5837 5833 5832 5829 5824 5818 5811 5805 5800 5796 5791 5787 5783 5779 5776 5773 5770 5767 5765 5763 5762 5761 5761 5762 5762 5760 5757 5753 5750 5748
5816 5804 5819 5831 5839 5841 5841 5844 5848 5834 5824 5838 5845 5850 5854 5855 5853 5850 5845 5841 5835 5829 5823 5818 5813 5807 5800 5795 5791 5786 5781 5777 5773 5770 5767 5765 5762 5760 5759 5758 5757 5756 5757 5758 5758 5754 5750 5747 5744
5815 5820 5829 5835 5843 5841 5842 5849 5847 5841 5848 5867 5864 5858 5853 5853 5853 5850 5843 5836 5828 5817 5811 5809 5807 5802 5797 5792 5786 5780 5774 5771 5769 5767 5764 5761 5759 5758 5757 5756 5754 5752 5753 5755 5754 5751 5747 5745 5742
5813 5819 5831 5839 5840 5842 5843 5842 5848 5852 5868 5871 5862 5852 5846 5845 5840 5831 5821 5810 5798 5788 5786 5787 5789 5790 5787 5782 5776 5772 5769 5768 5768 5767 5764 5761 5758 5756 5756 5755 5753 5751 5751 5752 5750 5747 5745 5742 5741
5811 5815 5823 5835 5840 5844 5836 5837 5839 5847 5862 5857 5848 5834 5821 5813 5808 5800 5795 5787 5776 5764 5756 5756 5760 5767 5770 5769 5769 5768 5768 5767 5766 5764 5762 5759 5756 5753 5752 5751 5750 5749 5750 5750 5748 5745 5742 5739 5737
5812 5803 5809 5823 5830 5835 5830 5816 5827 5842 5849 5838 5824 5807 5794 5789 5786 5780 5778 5777 5773 5755 5745 5742 5744 5747 5752 5755 5760 5763 5763 5762 5760 5759 5758 5756 5753 5749 5747 5746 5746 5746 5746 5746 5744 5742 5739 5736 5734
5797 5787 5781 5811 5822 5828 5812 5789 5810 5830 5832 5815 5803 5793 5781 5773 5770 5769 5771 5772 5773 5758 5744 5742 5740 5736 5739 5744 5748 5753 5755 5753 5753 5753 5752 5750 5747 5744 5741 5739 5739 5740 5740 5740 5739 5736 5733 5731 5730
5772 5763 5771 5797 5820 5822 5806 5784 5786 5805 5809 5795 5787 5779 5768 5760 5758 5761 5768 5770 5770 5761 5751 5747 5734 5730 5730 5734 5741 5746 5747 5745 5745 5745 5744 5743 5741 5739 5736 5734 5734 5735 5735 5734 5733 5731 5729 5726 5725
5758 5763 5774 5785 5808 5810 5792 5772 5765 5772 5784 5777 5771 5763 5752 5746 5745 5750 5757 5762 5763 5760 5756 5751 5738 5728 5726 5730 5732 5736 5738 5738 5739 5739 5738 5738 5736 5734 5731 5729 5730 5730 5729 5727 5726 5725 5725 5723 5722
5778 5773 5771 5787 5807 5795 5768 5751 5748 5754 5760 5759 5756 5751 5743 5738 5741 5745 5750 5753 5751 5748 5746 5743 5732 5726 5726 5726 5727 5730 5732 5734 5734 5734 5733 5732 5731 5729 5727 5725 5725 5726 5724 5722 5722 5721 5720 5719 5718
5777 5767 5767 5781 5798 5787 5752 5743 5744 5748 5747 5750 5750 5749 5747 5742 5742 5743 5743 5743 5743 5740 5737 5732 5726 5722 5722 5723 5727 5731 5731 5730 5730 5729 5726 5726 5725 5725 5724 5722 5720 5720 5719 5718 5717 5716 5715 5714 5714
5771 5766 5766 5770 5779 5779 5759 5735 5736 5740 5744 5746 5746 5746 5746 5747 5746 5745 5742 5738 5736 5731 5727 5723 5718 5716 5715 5719 5723 5726 5726 5725 5724 5722 5721 5722 5722 5721 5719 5718 5717 5715 5714 5713 5714 5712 5709 5707 5708
5759 5779 5778 5774 5759 5743 5746 5709 5719 5726 5729 5734 5736 5738 5739 5739 5739 5735 5731 5728 5724 5720 5718 5715 5712 5710 5711 5714 5715 5715 5715 5715 5719 5720 5721 5721 5720 5718 5716 5715 5714 5713 5712 5711 5712 5711 5707 5704 5701
5771 5785 5778 5770 5756 5737 5735 5709 5711 5722 5716 5720 5727 5730 5730 5728 5725 5721 5719 5716 5713 5711 5709 5707 5704 5701 5700 5702 5704 5706 5706 5708 5712 5715 5715 5714 5714 5714 5713 5711 5710 5709 5709 5707 5706 5706 5705 5702 5698
5782 5775 5760 5745 5732 5717 5730 5714 5702 5709 5710 5714 5720 5721 5719 5716 5714 5710 5708 5706 5702 5698 5696 5693 5691 5689 5689 5689 5690 5692 5694 5695 5698 5700 5702 5704 5704 5706 5707 5706 5706 5705 5704 5703 5700 5700 5700 5698 5696
5769 5740 5713 5711 5701 5704 5722 5708 5699 5710 5712 5713 5712 5711 5710 5708 5705 5703 5700 5695 5691 5688 5685 5683 5680 5678 5678 5678 5677 5677 5677 5678 5679 5681 5685 5688 5690 5693 5695 5697 5698 5699 5698 5698 5695 5694 5694 5693 5691
5765 5741 5708 5696 5691 5698 5710 5698 5696 5711 5713 5712 5709 5705 5702 5698 5695 5693 5690 5687 5682 5679 5676 5674 5670 5666 5665 5664 5664 5663 5663 5662 5663 5665 5667 5670 5674 5678 5683 5686 5689 5691 5691 5690 5689 5688 5688 5687 5685
5761 5746 5739 5710 5707 5691 5695 5692 5693 5704 5702 5700 5696 5692 5688 5685 5684 5681 5677 5674 5668 5664 5661 5658 5656 5653 5650 5648 5646 5646 5646 5647 5649 5651 5653 5655 5658 5662 5667 5671 5674 5677 5679 5680 5681 5681 5681 5681 5680
5764 5752 5724 5708 5694 5683 5690 5686 5677 5686 5687 5685 5679 5675 5674 5673 5671 5670 5665 5661 5656 5651 5645 5640 5636 5635 5636 5634 5632 5631 5630 5630 5631 5633 5637 5640 5643 5646 5649 5651 5654 5660 5665 5669 5671 5673 5675 5674 5675
5748 5744 5726 5707 5697 5681 5672 5678 5692 5688 5683 5676 5671 5668 5665 5664 5662 5659 5656 5651 5645 5638 5631 5624 5619 5616 5615 5615 5615 5614 5615 5615 5615 5616 5619 5622 5626 5628 5631 5633 5637 5642 5648 5654 5659 5663 5666 5667 5668
5747 5740 5726 5702 5693 5684 5670 5670 5691 5686 5679 5674 5668 5664 5660 5655 5651 5646 5641 5635 5629 5624 5619 5612 5605 5598 5595 5592 5589 5589 5590 5591 5593 5596 5600 5603 5606 5609 5612 5615 5618 5624 5630 5638 5644 5650 5656 5658 5660